User: anonymous   Login
Location: Unspecified
(0.0000°N, 0.0000°E)
Time: 18:13:35
(UTC+00:00)
Language:

STARLINK-32078 - Orbit

View from above orbital plane
View from above orbital plane
View from above satellite
View from above satellite

Ground track
Ground track

The orbit is defined by the following mean orbital elements,

1 60338U          26145.23753791 +.00000000 +00000-0 +29163-4 0 00003
2 60338  53.1609  80.1615 0001313  88.9287 271.1865 15.30197752    07
Epoch (UTC): 25 May 2026 05:42:03
Eccentricity: 0.0001313
inclination: 53.1609°
perigee height: 474 km
apogee height: 476 km
right ascension of ascending node: 80.1615°
argument of perigee: 88.9287°
revolutions per day: 15.30197752
mean anomaly at epoch: 271.1865°

The dashed part of the orbit path shows where the satellite is in the earth's shadow,  

DLR